Showing default

BIFROST-DNK, 64588

Orbit data source: Space-Track

BIFROST-DNK, 64588 is a Danish payload satellite in SSO that was launched on Mon, 23 Jun 2025 UTC via an FALCON 9 launch vehicle from the Air Force Western Test Range (AFWTR). Payload-class satellites include a variety of spacecraft equipped with specific instruments for various scientific and technological missions. These include communications satellites like Starlink; space stations such as the ISS; scientific satellites like the Hubble; Earth observation satellites from companies like Planet Labs, Umbra, and HawkEye 360; GPS; miniature CubeSats for education and research; and military/defense satellites.

Loading next visibility...
Identifier
64588, 2025-135BN
Orbit
SSO
Country
Flag of DKDK / DEN
Related business
Manufacturer
Space Inventor
Mission
Operational Defense Imaging
Bus & Motor
SPINV MICRO, Unknown motor
Mass
~50 kg wet, ~50 kg dry
Launch date (UTC)
2025-06-23 (10 months ago)
Launch vehicle
FALCON 9
Launch site
Air Force Western Test Range (AFWTR)
Object type
Payload
Rocket body
Debris
Shape & HBR
Box + 2 Pan, 0.5 m
Radar Cross Section
0.446 m², Medium (>0.1 m² and < 1m²)

Expand to show TLE details & history
Last TLE update: 10 hours ago

TLE from 10 hours ago
0 BIFROST-DNK
1 64588U 25135BN  26120.60405201  .00003510  00000-0  33110-3 0  9996
2 64588  97.7688 235.7590 0005509 133.8841 226.2835 14.94410204 46801
Epoch: 2026-04-30T14:29Z
TLE epoch observation values (Epoch: 2026-04-30T14:29:50.093Z)
Latitude
-0.00003°
Longitude
159.75201°
Altitude
589.901 km
Speed
7.564 km/s
True Right ascension
15h 43m 02s
True Declination
0° 00' 00"
Sunlit
Object was in full shadow at epoch
Visualization orbit readout
Latitude
Unknown
Longitude
Unknown
Altitude
Unknown
Speed
Unknown
Apparent Right ascension
Unknown
Apparent Declination
Unknown
Sunlit
N/A
Visualization observer readout
Local Sidereal Time
07:55:51
Azimuth
Unknown
Elevation
Unknown
Doppler factor
Unknown
Orbital elements
Apogee altitude
585.054 km
Perigee altitude
577.386 km
Semi-major axis
6,959.357 km
Eccentricity
0.00055
Inclination
97.7688°
RAAN
235.759°
Arg. of periapsis
133.8841°
True anomaly
226.23789°
Mean anomaly
226.2835°
Eccentric anomaly
226.2607°
Mean motion
3.73843 °/min
Orbital period
96.3 mins
BSTAR
0.0003311
Loading maneuver chart data...
Computing Atmospheric mass density...
Loading historical data...
Loading historical data...
Loading historical data...
Loading historical data...
Loading historical data...
Loading historical data...
Loading historical data...

Documentation

Showing up to 5 results
|